Main page
METAR-TAF:

METAR-TAF

Airports :

Lavan Airport

Lavan Island, Iran

latitude: 26-48-37N, longitude: 53-21-22E, elevation: 23 m

Current weather observation

The report was made 1 hour and 49 minutes ago, at 08:00 UTC
Wind 10 kt from the West/Northwest
Temperature 29°C
Humidity 74%
Pressure 1016 hPa
Visibility: 5000 m
Few clouds at a height of 3000 ft
Scattered clouds at a height of 20000 ft
haze

METAR: OIBV 170800Z 30010KT 5000 HZ FEW030 SCT200 29/24 Q1016

Time: 13:19 (09:49 UTC)


TAF: missing

Weather observations and forecasts of more than 4000 airports (METAR and TAF reports).

The available stations are represented by yellow and red dots on the map.

Hover mouse over dot to see the name of the station.

Then click to see weather observations and forecasts.

To change the map : click on the green buttons with a black cross to zoom in, on the green button with a dash to zoom out, or on the green arrows for adjacent maps.


METAR-TAF: